Regional Weather Roundup
Issued by NWS

Home | Current Version | Previous Version | Text Only | Print | Product List | Glossary Off
Versions: 1 2 3 4 5 6 7 8 9 10 11 12 13 14 15 16 17 18 19 20 21 22 23 24 25 26 27 28 29 30 31 32 33 34 35 36 37 38 39 40 41 42 43 44 45 46 47 48 49 50

000
ASUS43 KDMX 280707
RWRIA

WEATHER ROUNDUP FOR IOWA
NATIONAL WEATHER SERVICE DES MOINES IA
200 AM CDT MON JUL 28 2014

NOTE: "FAIR" INDICATES FEW OR NO CLOUDS BELOW 12,000 FEET WITH NO
SIGNIFICANT WEATHER AND/OR OBSTRUCTIONS TO VISIBILITY.

* - THESE STATIONS ARE NOT NWS STATIONS...THUS NOT UNDER NWS
QUALITY CONTROL.  THEY ALSO DO NOT REPORT WEATHER SUCH
AS PRECIPITATION OR FOG.

IAZ001>003-012>014-020>022-031>034-043>046-280800-
   NORTHWEST IOWA

CITY           SKY/WX    TMP DP  RH WIND       PRES   REMARKS
CARROLL *      CLEAR     61  57  88 NW10      30.17S
CHEROKEE *     CLEAR     59  57  94 CALM      30.20S
DENISON *      CLEAR     57  57 100 NW6       30.18S
LE MARS *      CLEAR     59  57  94 NW5       30.22S
ORANGE CITY *  CLEAR     57  54  88 NW6       30.22R
SHELDON *      CLEAR     55  54  94 NW5       30.20S
SIOUX CITY     PTCLDY    61  56  83 N7        30.22S
SPENCER        MOCLDY    57  55  93 W6        30.18S
STORM LAKE *   CLEAR     57  57 100 NW9       30.19F
$$

IAZ055>058-069>071-079>083-090>094-280800-
   SOUTHWEST IOWA

CITY           SKY/WX    TMP DP  RH WIND       PRES   REMARKS
ATLANTIC *     CLEAR     59  55  88 CALM      30.17R
AUDUBON *      CLEAR     61  57  88 NW8       30.18F
CLARINDA *     CLEAR     61  57  88 N5        30.18S
COUNCIL BLFS *   N/A     61  59  94 NW7       30.19S
CRESTON *      CLEAR     57  55  94 W7        30.15S
HARLAN  *      CLEAR     59  57  94 NW9       30.21S
LAMONI         CLEAR     59  56  89 W7        30.13S
RED OAK *      CLEAR     63  57  82 NW12      30.18S
SHENANDOAH *   CLEAR     63  57  82 N8        30.18S
$$

IAZ047>049-059>061-072>074-084-280800-
   CENTRAL IOWA

CITY           SKY/WX    TMP DP  RH WIND       PRES   REMARKS
AMES           CLEAR     62  59  90 NW9       30.12R
ANKENY *       CLEAR     64  59  82 NW10      30.11S
CHARITON *     CLEAR     63  57  82 NW12      30.11S
DES MOINES     CLEAR     64  57  78 NW12      30.11R
GRINNELL*      CLEAR     61  59  94 NW7       30.09R
KNOXVILLE *    CLEAR     64  59  82 NW16      30.08S
MARSHALLTOWN   CLEAR     62  60  93 N12       30.09R
PELLA *        CLEAR     63  59  88 NW8       30.10S
PERRY *          N/A     59  59 100 NW6       30.15R
$$

IAZ004>006-015-016-023>025-035-036-280800-
   NORTH CENTRAL IOWA

CITY           SKY/WX    TMP DP  RH WIND       PRES   REMARKS
ALGONA *       MOCLDY    61  59  94 N6        30.16R
CLARION *      PTCLDY    63  61  94 N8        30.13S
ESTHERVILLE    CLEAR     58  56  93 NW7       30.17R
FORT DODGE *   CLEAR     61  55  82 NW6       30.15S
MASON CITY     CLOUDY    61  58  90 N8        30.15R
FOREST CITY *  CLOUDY    61  59  94 N5        30.15R
IOWA FALLS *     N/A     63  59  88 N6        30.12S
$$

IAZ007>011-017>019-026>030-037>042-050>054-066-280800-
   NORTHEAST IOWA

CITY           SKY/WX    TMP DP  RH WIND       PRES   REMARKS
CEDAR RAPIDS   CLEAR     62  59  90 N9        30.04S
CHARLES CITY * CLEAR     59  57  94 N8        30.13R
CLINTON *      PTCLDY    61  57  88 N8        30.04R
DECORAH *      MOCLDY    57  54  88 N7        30.09R
DUBUQUE        CLOUDY    63  54  72 N18G26    30.04R
MONTICELLO *   CLOUDY    64  61  88 N7        30.04R
OELWEIN *      CLEAR     61  57  88 N9        30.09R
WATERLOO       CLEAR     61  57  87 N13       30.08R
$$

IAZ064-065-067-068-078-280800-
   EAST CENTRAL IOWA

CITY           SKY/WX    TMP DP  RH WIND       PRES   REMARKS
DAVENPORT      CLEAR     62  59  90 N9        30.02R
IOWA CITY      PTCLDY    66  61  84 N8        30.04S
MT. PLEASANT * CLEAR     64  59  82 NW9       30.03S
MUSCATINE *    CLEAR     64  61  88 NW7       30.02R
QUAD CITIES    CLEAR     66  59  78 NW7       30.00R
$$

IAZ062-063-075>077-085>089-095>099-280800-
   SOUTHEAST IOWA

CITY           SKY/WX    TMP DP  RH WIND       PRES   REMARKS
BURLINGTON     CLEAR     65  60  84 NW8       30.02R
FAIRFIELD *    CLEAR     63  59  88 NW9       30.06R
FORT MADISON * CLEAR     64  63  94 NW8       30.03S
KEOKUK *       CLEAR     66  61  82 NW9       30.02S
OSKALOOSA *      N/A     63  61  94 NW10      30.07S
CENTERVILLE *  CLEAR     63  59  88 NW8       30.10S
OTTUMWA        CLEAR     63  59  87 NW13      30.06S
WASHINGTON *   CLEAR     63  61  94 NW10      30.04R
$$

ABBREVIATIONS USED IN REMARKS
   TC - TEMPERATURES IN CELSIUS
  WCI - WIND CHILL INDEX
   HX - HEAT INDEX
  VSB - VISIBILITY
$$




USA.gov is the U.S. government's official web portal to all federal, state and local government web resources and services.